Other Surface Observations
Issued by NWS Upton, NY

Home | Current Version | Previous Version | Text Only | Print | Product List | Glossary On
Versions: 1 2 3 4 5 6 7 8 9 10 11 12 13 14 15 16 17 18 19 20 21 22 23 24 25 26 27 28 29 30 31 32 33 34 35 36 37 38 39 40 41 42 43 44 45 46 47 48 49 50
268
SXUS51 KOKX 221757
OSOOKX
New York City Metropolitan Area Weather Roundup
National Weather Service New York NY
200 PM EDT SUN APR 22 2018

CITY           SKY/WX    TMP DP  RH WIND       PRES   REMARKS
Central Park   FAIR      63  13  14 CALM      30.38F
LaGuardia Arpt FAIR      62  15  16 E6        30.36F
Kennedy Intl   FAIR      60  24  25 S13       30.38F
Newark Liberty FAIR      66  36  32 NW5G21    30.36F
Teterboro Arpt FAIR      63  19  18 VRB5G16   30.35F
Bronx Bot Gard   N/A     61  16  17 SW6       30.36F
Bronx Lehman C   N/A     61  14  16 W6          N/A
Queens College   N/A     59  18  20 N7          N/A
Breezy Point     N/A     54 N/A N/A SE9         N/A
Brooklyn Coll    N/A     61  12  15 NW5         N/A
Staten Island    N/A     63  18  17 SE5         N/A

>>>>>>>>>>>>>>>>>>>>>>>>>>>>>>>>> KEY <<<<<<<<<<<<<<<<<<<<<<<<<<<<<<<
> SKY/WX - Sky Condition/Present    : R : WCI - Wind Chill Index    <
>          Weather                  : E : VSB - Visibility in Miles <
> TMP    - Temperature in Deg F     : M : HX  - Heat Index          <
> DP     - Dew Point Temperature    : A : TC  - Temperature in      <
> RH     - Relative Humidity        : R :       Celsius             <
> WIND   - Direction/Speed (mph)    : K : VRB - Variable Wind Dir   <
> PRES   - Pressure (in Hg)         : S :                           <
>>>>>>>>>>>>>>>>>>>>>>>>>>>>>>>>> KEY <<<<<<<<<<<<<<<<<<<<<<<<<<<<<<<




USA.gov is the U.S. government's official web portal to all federal, state and local government web resources and services.